Find Starlink 31909

NORAD ID: 59663 Int'l Des: 2024-084 Owner: SPXS Country: US Constellation: starlink operational
LEOCIRCULAR

リアルタイム位置

3D地球を読み込み中...

Starlink 31909について

説明を読み込み中...

次回通過

Passes for default location (London). Set your location on the main map for personalized predictions.

高度履歴

Loading altitude history...

軌道要素

1 59663U 24084K 26129.20990464 .00001985 00000-0 81625-4 0 9990
2 59663 43.0011 59.6467 0001671 264.7783 95.2878 15.27585417113637
Epoch: May 9, 2026 • Age: 20 hours

現在のステータス

高度 482.4 km
速度 7.63 km/s
衛星直下点 13.08°N, 15.66°W
打ち上げ日 May 6, 2024
運用期間 2 years
タイプ internet

技術仕様

分類 Payload
質量 730.00 kg
乾燥質量 700.00 kg
総質量 730.00 kg
長さ 0.30 m
直径 4.10 m
スパン 29.00 m
形状 Box + pan
製造者 SPXS
バスタイプ Starlink V2M
フェーズステータス In Orbit
所有者/国 SPXS/US

Most Searched